#timestamp,LO_Frequency,Hit,StdDev 
1567972815.5,286046998.5,N
1567972835.3,286046998.3,N
1567972855.2,286047001.2,N
1567972875.9,286047001.0,N
1567972895.7,286047000.8,N
1567972915.6,286047000.8,N
1567972935.4,286047000.4,N
1567972955.2,286046998.6,N
1567972975.1,286047000.0,N
1567972976.0,286047000.0,N
1567972995.8,286046999.9,N
1567973015.7,286046998.6,N
1567973035.5,286047000.6,N
1567973055.3,286047000.3,N
1567973075.2,286047001.2,N
1567973095.0,286047001.2,N
1567973095.9,286047001.2,N
1567973115.7,286047000.9,N
1567973135.6,286047000.8,N
1567973155.4,286047002.5,N
1567973175.3,286046999.8,N
1567973195.1,286047002.7,N
1567973215.8,286047000.2,N
1567973235.7,286047000.0,N
1567973255.5,286047000.2,N
1567973275.4,286046999.7,N
1567973295.2,286047002.2,N
1567973315.0,286047001.9,N
1567973315.9,286047001.9,N
1567973335.8,286047002.3,N
1567973355.6,286046999.9,N
1567973375.5,286047000.5,N
1567973395.3,286046998.1,N
1567973415.1,286046998.6,N
1567973435.9,286046998.2,N
1567973455.7,286047000.4,N
1567973475.5,286047000.5,N
1567973495.4,286047002.4,N
1567973515.2,286047002.5,N
1567973535.1,286047000.3,N
1567973536.0,286047000.3,N
1567973555.8,286046998.3,N
1567973575.6,286046998.5,N
1567973595.5,286047001.0,N
1567973615.3,286046998.1,N
1567973635.1,286047000.1,N
1567973655.9,286047002.8,N
1567973675.7,286046999.8,N
1567973695.6,286046999.7,N
1567973715.4,286047000.6,N
1567973735.2,286047000.9,N
1567973755.1,286047002.6,N
1567973756.0,286047002.6,N
1567973775.8,286047001.9,N
1567973795.7,286047004.0,N
1567973815.5,286047001.6,N
1567973835.3,286046999.9,N
1567973855.2,286046999.9,N
1567973875.0,286047000.0,N
1567973875.9,286047000.0,N
1567973895.8,286047000.5,N
1567973915.6,286047002.6,N
1567973935.4,286047000.5,N
1567973955.3,286047000.6,N
1567973975.1,286047000.1,N
1567973995.9,286047001.2,N
1567974015.7,286047001.0,N
1567974035.5,286047000.3,N
1567974055.4,286047000.2,N
1567974075.2,286047002.6,N
1567974095.1,286047002.2,N
1567974096.0,286047002.2,N
1567974115.8,286046999.9,N
1567974135.6,286047002.2,N
1567974155.5,286047001.3,N
1567974175.3,286047001.6,N
1567974195.2,286047000.2,N
1567974215.9,286047002.2,N
1567974235.7,286047004.0,Y
1567974255.6,286047002.2,P
1567974275.4,286046999.9,N
1567974295.3,286047000.0,N
1567974315.1,286047000.0,N
1567974316.0,286047000.0,N
1567974335.8,286047000.4,N
1567974355.7,286047002.7,Y
1567974375.5,286047002.3,P
1567974395.3,286047002.0,N
1567974415.2,286047002.2,N
1567974435.0,286047002.2,Y
1567974435.9,286047002.2,P
1567974455.8,286047000.2,N
1567974475.6,286047000.2,N
1567974495.4,286047000.2,N
1567974515.3,286047000.2,N
1567974535.1,286047000.6,N
1567974555.9,286047002.8,Y
1567974575.7,286047000.3,P
1567974595.5,286047001.0,P
1567974615.4,286047000.2,N
1567974635.2,286046999.9,N
1567974655.1,286046999.9,N
1567974656.0,286046999.9,N
1567974675.8,286047002.6,Y
1567974695.6,286047000.4,P
1567974715.5,286047000.5,P
1567974735.3,286047000.3,P
1567974755.2,286047000.9,Y
1567974775.9,286047000.8,P
1567974795.7,286047001.1,P
1567974815.6,286046998.5,P
1567974835.4,286046998.1,N
1567974855.2,286047001.2,N
1567974875.1,286047001.0,N
1567974876.0,286047001.0,N
1567974895.8,286046999.7,N
1567974915.7,286047000.4,N
1567974935.5,286047000.9,N
1567974955.3,286047000.2,N
1567974975.2,286047000.0,N
1567974995.0,286047000.6,N
1567974995.9,286047000.6,N
1567975015.8,286047001.2,N
1567975035.6,286047000.2,N
1567975055.4,286046999.7,N
1567975075.3,286047002.7,Y
1567975095.1,286047000.2,P
1567975115.8,286047000.0,N
1567975135.7,286046999.1,P
1567975155.5,286046999.2,N
1567975175.4,286046997.1,Y
1567975195.2,286046996.5,P
1567975215.0,286046996.7,N
1567975215.9,286046996.7,N
1567975235.8,286046996.7,N
1567975255.6,286046999.5,N
1567975275.5,286046996.8,N
1567975295.3,286046996.7,N
1567975315.1,286046996.6,N
1567975335.9,286046997.8,N
1567975355.7,286046996.9,N
1567975375.6,286046997.1,N
1567975395.4,286046997.4,N
1567975415.2,286046997.0,N
1567975435.1,286046999.6,N
1567975436.0,286046999.6,N
1567975455.8,286046997.4,N
1567975475.6,286046997.4,N
1567975495.5,286046997.3,N
1567975515.3,286046997.9,N
1567975535.2,286046996.8,N
1567975555.9,286046997.1,N
1567975575.7,286046997.2,N
1567975595.6,286046998.0,N
1567975615.4,286046998.0,N
1567975635.3,286046995.6,Y
1567975655.1,286046998.3,P
1567975656.0,286046998.3,P
1567975675.8,286046996.5,P
1567975695.7,286046999.3,N
1567975715.5,286047001.1,N
1567975735.3,286047001.1,N
1567975755.2,286046998.9,N
1567975775.0,286046999.1,N
1567975775.9,286046999.1,N
1567975795.8,286046999.1,N
1567975815.6,286046999.1,N
1567975835.4,286046996.6,N
1567975855.3,286046999.2,N
1567975875.1,286046996.7,N
1567975895.9,286046997.5,N
1567975915.7,286046999.2,N
1567975935.5,286046998.8,N
1567975955.4,286046999.6,N
1567975975.2,286046996.9,N
1567975995.0,286046997.1,N
1567975995.9,286046997.1,N
1567976015.8,286046999.5,N
1567976035.6,286046997.3,N
1567976055.5,286046997.2,N
1567976075.3,286046996.9,N
1567976095.1,286046996.9,N
1567976115.9,286046999.2,N
1567976135.7,286046998.7,N
1567976155.6,286046998.8,N
1567976175.4,286046998.7,N
1567976195.2,286046998.7,N
1567976215.1,286046998.1,N
1567976216.0,286046998.1,N
1567976235.8,286047001.1,N
1567976255.7,286047000.8,N
1567976275.5,286047000.8,N
1567976295.3,286046998.1,N
1567976315.2,286046998.3,N
1567976335.9,286047000.8,N
1567976355.7,286047000.0,N
1567976375.6,286047000.1,N
1567976395.4,286047000.2,N
